Regional Weather Roundup
Issued by NWS Cleveland, OH

Home | Current Version | Previous Version | Text Only | Print | Product List | Glossary Off
Versions: 1 2 3 4 5 6 7 8 9 10 11 12 13 14 15 16 17 18 19 20 21 22 23 24 25 26 27 28 29 30 31 32 33 34 35 36 37 38 39 40 41 42 43 44 45 46 47 48 49 50

000
ASUS41 KCLE 290210
RWRCLE
OHIO REGIONAL WEATHER ROUNDUP
NATIONAL WEATHER SERVICE CLEVELAND, OH
1000 PM EDT FRI AUG 28 2015

NOTE: "FAIR" INDICATES FEW OR NO CLOUDS BELOW 12,000 FEET WITH NO
SIGNIFICANT WEATHER AND/OR OBSTRUCTIONS TO VISIBILITY.

OHZ001>008-015>018-024>027-034-035-043-044-290300-
   NORTHWEST OHIO

CITY           SKY/WX    TMP DP  RH WIND       PRES   REMARKS
DEFIANCE       PTCLDY    65  59  81 CALM      30.13R
FINDLAY        MOCLDY    67  59  75 E3        30.14R
TOLEDO EXPRESS PTCLDY    61  59  93 E5        30.14R
TOLEDO EXEC    PTCLDY    66  59  78 E6        30.15R
LIMA           MOCLDY    64  59  83 CALM      30.15R
$$

OHZ009>014-019>023-028>033-038-089-290300-
   NORTHEAST OHIO

CITY           SKY/WX    TMP DP  RH WIND       PRES   REMARKS
CLE-HOPKINS    MOCLDY    67  57  70 E6        30.19R
CLE-LAKEFRONT  MOCLDY    69  57  65 E3        30.16R
CUY CO. ARPT   MOCLDY    64  59  82 SE6       30.19R
LORAIN-ELYRIA  MOCLDY    61  57  87 E5        30.17R
ASHTABULA      CLOUDY    60  58  92 CALM      30.20R
AKRON-CANTON   PTCLDY    64  56  75 N9        30.18R
WOOSTER        PTCLDY    61  56  83 E5        30.17S
MANSFIELD      PTCLDY    65  58  78 NE6       30.18R
YOUNGSTOWN     CLOUDY    64  58  80 NE9       30.18R
$$

OHZ042-051>053-060>062-070>072-077>081-290300-
  SOUTHWEST OHIO

CITY           SKY/WX    TMP DP  RH WIND       PRES   REMARKS
CINC-COVINGTON MOCLDY    69  58  67 SE5       30.13R
CINC-LUNKEN    PTCLDY    64  61  90 CALM      30.13R
HAMILTON       MOCLDY    62  59  90 CALM      30.13R
DAYTON         CLOUDY    66  58  75 E3        30.15R
WRIGHT-PAT AFB CLOUDY    68  59  72 CALM      30.15R
DAYTON GENERAL MOCLDY    67  57  70 E6        30.13R
WILMINGTON     PTCLDY    65  57  75 E3        30.14R
$$

OHZ036-037-039>041-045>050-054>059-063>069-073>076-082>088-290300-
  CENTRAL AND SOUTHEAST OHIO

CITY           SKY/WX    TMP DP  RH WIND       PRES   REMARKS
COLUMBUS       MOCLDY    67  57  70 CALM      30.14R
OSU AIRPORT    MOCLDY    67  56  67 CALM      30.15R
BOLTON FIELD   PTCLDY    62  58  87 CALM      30.16R
RICKENBACK AFB PTCLDY    62  58  87 SE5       30.14S
NEWARK         PTCLDY    62  59  90 CALM      30.15R
MARION         MOCLDY    64  58  80 CALM      30.16R
LANCASTER      PTCLDY    59  56  89 CALM      30.16R
ZANESVILLE     PTCLDY    64  56  75 CALM      30.16R
NEW PHILLY     MOCLDY    61  57  87 CALM      30.17R
$$


USA.gov is the U.S. government's official web portal to all federal, state and local government web resources and services.